Time,TemperatureF,DewpointF,PressureIn,WindDirection,WindDirectionDegrees,WindSpeedMPH,WindSpeedGustMPH,Humidity,HourlyPrecipIn,Conditions,Clouds,dailyrainin,SoftwareType,DateUTC
2013-05-22 00:02:00,65.0,64.0,29.89,SW,231,0.0,3.0,96,0.27,,,1.08,,2013-05-22 05:02:00,
2013-05-22 00:12:00,65.0,64.0,29.86,SW,215,0.0,0.0,96,0.25,,,1.14,,2013-05-22 05:12:00,
2013-05-22 00:21:00,65.0,64.0,29.86,SW,215,0.0,0.0,96,0.25,,,1.14,,2013-05-22 05:21:00,
2013-05-22 00:32:00,64.0,63.0,29.83,South,173,0.0,0.0,96,0.22,,,1.16,,2013-05-22 05:32:00,
2013-05-22 00:42:00,64.0,63.0,29.78,SE,129,6.0,9.0,96,0.18,,,1.17,,2013-05-22 05:42:00,
2013-05-22 00:52:00,64.0,63.0,29.78,SE,129,6.0,9.0,96,0.18,,,1.17,,2013-05-22 05:52:00,
2013-05-22 01:01:00,64.0,63.0,29.81,North,360,3.0,7.0,97,0.10,,,1.18,,2013-05-22 06:01:00,
2013-05-22 01:11:00,64.0,63.0,29.77,SSE,148,6.0,13.0,97,0.05,,,1.19,,2013-05-22 06:11:00,
2013-05-22 01:21:00,64.0,63.0,29.77,SSE,148,6.0,13.0,97,0.05,,,1.19,,2013-05-22 06:21:00,
2013-05-22 01:31:00,64.0,63.0,29.77,SSW,203,6.0,14.0,97,0.03,,,1.19,,2013-05-22 06:31:00,
2013-05-22 01:42:00,64.0,63.0,29.73,South,181,7.0,14.0,97,0.02,,,1.19,,2013-05-22 06:42:00,
2013-05-22 01:52:00,64.0,63.0,29.73,South,181,7.0,14.0,97,0.02,,,1.19,,2013-05-22 06:52:00,
2013-05-22 02:01:00,64.0,63.0,29.76,ENE,73,0.0,8.0,97,0.01,,,1.19,,2013-05-22 07:01:00,
2013-05-22 02:11:00,64.0,63.0,29.76,ENE,73,0.0,8.0,97,0.01,,,1.19,,2013-05-22 07:11:00,
2013-05-22 02:21:00,64.0,63.0,29.74,SSW,198,2.0,8.0,96,0.00,,,1.19,,2013-05-22 07:21:00,
2013-05-22 02:31:00,64.0,63.0,29.75,SSE,152,0.0,6.0,96,0.00,,,1.19,,2013-05-22 07:31:00,
2013-05-22 02:41:00,64.0,63.0,29.75,SSE,152,0.0,6.0,96,0.00,,,1.19,,2013-05-22 07:41:00,
2013-05-22 02:53:00,64.0,63.0,29.77,North,9,0.0,0.0,96,0.00,,,1.19,,2013-05-22 07:53:00,
2013-05-22 03:02:00,64.0,63.0,29.77,ENE,75,0.0,0.0,96,0.00,,,1.19,,2013-05-22 08:02:00,
2013-05-22 03:11:00,64.0,63.0,29.77,ENE,75,0.0,0.0,96,0.00,,,1.19,,2013-05-22 08:11:00,
2013-05-22 03:22:00,64.0,63.0,29.80,West,269,0.0,0.0,96,0.00,,,1.19,,2013-05-22 08:22:00,
2013-05-22 03:31:00,64.0,63.0,29.81,WNW,298,1.0,3.0,96,0.00,,,1.19,,2013-05-22 08:31:00,
2013-05-22 03:42:00,64.0,63.0,29.81,WNW,298,1.0,3.0,96,0.00,,,1.19,,2013-05-22 08:42:00,
2013-05-22 03:52:00,64.0,63.0,29.81,NW,321,0.0,0.0,96,0.00,,,1.19,,2013-05-22 08:52:00,
2013-05-22 04:01:00,64.0,63.0,29.81,WSW,237,0.0,0.0,96,0.00,,,1.19,,2013-05-22 09:01:00,
2013-05-22 04:11:00,64.0,63.0,29.81,WSW,237,0.0,0.0,96,0.00,,,1.19,,2013-05-22 09:11:00,
2013-05-22 04:22:00,63.0,62.0,29.82,WSW,237,0.0,0.0,96,0.00,,,1.19,,2013-05-22 09:22:00,
2013-05-22 04:32:00,63.0,62.0,29.82,WSW,237,0.0,0.0,96,0.00,,,1.19,,2013-05-22 09:32:00,
2013-05-22 04:42:00,63.0,62.0,29.82,WSW,237,0.0,0.0,96,0.00,,,1.19,,2013-05-22 09:42:00,
2013-05-22 04:53:00,63.0,62.0,29.82,WSW,237,0.0,0.0,96,0.00,,,1.19,,2013-05-22 09:53:00,
2013-05-22 05:03:00,63.0,62.0,29.82,WSW,237,0.0,0.0,97,0.00,,,1.19,,2013-05-22 10:03:00,
2013-05-22 05:12:00,63.0,62.0,29.83,WSW,237,0.0,0.0,97,0.00,,,1.19,,2013-05-22 10:12:00,
2013-05-22 05:22:00,63.0,62.0,29.83,WSW,237,0.0,0.0,97,0.00,,,1.19,,2013-05-22 10:22:00,
2013-05-22 05:33:00,63.0,62.0,29.82,WSW,237,0.0,0.0,97,0.00,,,1.19,,2013-05-22 10:33:00,
2013-05-22 05:42:00,63.0,62.0,29.82,WSW,237,0.0,0.0,97,0.00,,,1.19,,2013-05-22 10:42:00,
2013-05-22 05:52:00,63.0,62.0,29.83,South,171,0.0,1.0,97,-99.99,,,-99.99,,2013-05-22 10:52:00,
2013-05-22 06:02:00,63.0,62.0,29.82,South,177,0.0,0.0,97,-99.99,,,-99.99,,2013-05-22 11:02:00,
2013-05-22 06:11:00,63.0,62.0,29.82,South,177,0.0,0.0,97,-99.99,,,-99.99,,2013-05-22 11:11:00,
2013-05-22 06:21:00,63.0,62.0,29.82,SSW,192,0.0,3.0,97,-99.99,,,-99.99,,2013-05-22 11:21:00,
2013-05-22 06:32:00,64.0,63.0,29.82,South,189,0.0,3.0,97,-99.99,,,-99.99,,2013-05-22 11:32:00,
2013-05-22 06:42:00,64.0,63.0,29.82,South,182,0.0,4.0,96,0.00,,,-99.99,,2013-05-22 11:42:00,
2013-05-22 06:52:00,64.0,63.0,29.82,South,182,0.0,4.0,96,0.00,,,-99.99,,2013-05-22 11:52:00,
2013-05-22 07:02:00,64.0,63.0,29.82,SW,217,0.0,7.0,96,0.00,,,-99.99,,2013-05-22 12:02:00,
2013-05-22 07:12:00,64.0,63.0,29.82,SW,217,0.0,7.0,96,0.00,,,-99.99,,2013-05-22 12:12:00,
2013-05-22 07:22:00,64.0,63.0,29.83,SSW,211,0.0,0.0,96,0.00,,,-99.99,,2013-05-22 12:22:00,
2013-05-22 07:32:00,64.0,63.0,29.83,SSW,211,0.0,4.0,96,0.00,,,-99.99,,2013-05-22 12:32:00,
2013-05-22 07:42:00,64.0,63.0,29.83,SSW,211,0.0,4.0,96,0.00,,,-99.99,,2013-05-22 12:42:00,
2013-05-22 07:52:00,64.0,63.0,29.83,South,186,0.0,0.0,96,0.00,,,-99.99,,2013-05-22 12:52:00,
2013-05-22 08:01:00,65.0,64.0,29.83,SW,229,2.0,5.0,96,0.00,,,-99.99,,2013-05-22 13:01:00,
2013-05-22 08:11:00,65.0,64.0,29.83,SW,229,2.0,5.0,96,0.00,,,-99.99,,2013-05-22 13:11:00,
2013-05-22 08:22:00,65.0,64.0,29.82,SSW,202,0.0,3.0,95,0.00,,,-99.99,,2013-05-22 13:22:00,
2013-05-22 08:32:00,65.0,64.0,29.82,South,186,4.0,9.0,95,0.00,,,-99.99,,2013-05-22 13:32:00,
2013-05-22 08:41:00,65.0,64.0,29.82,South,186,4.0,9.0,95,0.00,,,-99.99,,2013-05-22 13:41:00,
2013-05-22 08:52:00,65.0,63.0,29.82,South,173,2.0,8.0,94,0.00,,,-99.99,,2013-05-22 13:52:00,
2013-05-22 09:02:00,66.0,64.0,29.83,SW,228,3.0,8.0,93,0.00,,,-99.99,,2013-05-22 14:02:00,
2013-05-22 09:11:00,66.0,64.0,29.83,SW,228,3.0,8.0,93,0.00,,,-99.99,,2013-05-22 14:11:00,
2013-05-22 09:21:00,66.0,64.0,29.83,SSW,211,4.0,7.0,93,0.00,,,-99.99,,2013-05-22 14:21:00,
2013-05-22 09:32:00,68.0,65.0,29.84,SW,223,2.0,7.0,90,0.00,,,-99.99,,2013-05-22 14:32:00,
2013-05-22 09:42:00,68.0,65.0,29.84,SW,223,2.0,7.0,90,0.00,,,-99.99,,2013-05-22 14:42:00,
2013-05-22 09:52:00,68.0,64.0,29.83,SSW,198,4.0,8.0,88,0.00,,,-99.99,,2013-05-22 14:52:00,
2013-05-22 10:01:00,69.0,65.0,29.84,SSW,209,3.0,9.0,87,0.00,,,-99.99,,2013-05-22 15:01:00,
2013-05-22 10:11:00,69.0,65.0,29.84,SSW,209,3.0,9.0,87,0.00,,,-99.99,,2013-05-22 15:11:00,
2013-05-22 10:21:00,70.0,65.0,29.84,SW,233,4.0,10.0,85,0.00,,,-99.99,,2013-05-22 15:21:00,
2013-05-22 10:32:00,71.0,66.0,29.84,WSW,250,2.0,10.0,84,0.00,,,-99.99,,2013-05-22 15:32:00,
2013-05-22 10:42:00,71.0,66.0,29.84,WSW,250,2.0,10.0,84,0.00,,,-99.99,,2013-05-22 15:42:00,
2013-05-22 10:53:00,72.0,67.0,29.84,WSW,238,2.0,8.0,83,0.00,,,-99.99,,2013-05-22 15:53:00,
2013-05-22 11:03:00,73.0,66.0,29.84,WSW,258,7.0,12.0,79,0.00,,,-99.99,,2013-05-22 16:03:00,
2013-05-22 11:12:00,73.0,66.0,29.84,WSW,258,7.0,12.0,79,0.00,,,-99.99,,2013-05-22 16:12:00,
2013-05-22 11:23:00,73.0,66.0,29.84,SW,234,2.0,10.0,79,0.00,,,-99.99,,2013-05-22 16:23:00,
2013-05-22 11:32:00,73.0,66.0,29.85,WSW,257,5.0,10.0,78,0.00,,,-99.99,,2013-05-22 16:32:00,
2013-05-22 11:42:00,73.0,66.0,29.85,WSW,257,5.0,10.0,78,0.00,,,-99.99,,2013-05-22 16:42:00,
2013-05-22 11:52:00,73.0,65.0,29.85,WSW,252,5.0,12.0,77,0.00,,,-99.99,,2013-05-22 16:52:00,
2013-05-22 12:02:00,74.0,66.0,29.85,SW,222,1.0,7.0,77,0.00,,,-99.99,,2013-05-22 17:02:00,
2013-05-22 12:11:00,74.0,66.0,29.84,WNW,284,5.0,9.0,77,0.00,,,-99.99,,2013-05-22 17:11:00,
2013-05-22 12:23:00,74.0,66.0,29.84,WNW,284,5.0,9.0,77,0.00,,,-99.99,,2013-05-22 17:23:00,
2013-05-22 12:33:00,74.0,66.0,29.85,SW,225,4.0,10.0,76,0.00,,,-99.99,,2013-05-22 17:33:00,
2013-05-22 12:42:00,74.0,66.0,29.85,SW,225,4.0,10.0,76,0.00,,,-99.99,,2013-05-22 17:42:00,
2013-05-22 12:53:00,74.0,66.0,29.85,WNW,286,3.0,9.0,76,0.00,,,-99.99,,2013-05-22 17:53:00,
2013-05-22 13:02:00,75.0,65.0,29.85,WSW,252,2.0,12.0,72,0.00,,,-99.99,,2013-05-22 18:02:00,
2013-05-22 13:14:00,75.0,65.0,29.85,WSW,252,2.0,12.0,72,0.00,,,-99.99,,2013-05-22 18:14:00,
2013-05-22 13:22:00,77.0,66.0,29.85,WNW,289,9.0,14.0,69,0.00,,,-99.99,,2013-05-22 18:22:00,
2013-05-22 13:33:00,78.0,67.0,29.85,WNW,302,2.0,15.0,68,0.00,,,-99.99,,2013-05-22 18:33:00,
2013-05-22 13:42:00,78.0,67.0,29.85,WNW,302,2.0,15.0,68,0.00,,,-99.99,,2013-05-22 18:42:00,
2013-05-22 13:52:00,78.0,66.0,29.85,West,271,3.0,12.0,66,0.00,,,-99.99,,2013-05-22 18:52:00,
2013-05-22 14:02:00,79.0,66.0,29.84,NNE,32,6.0,11.0,65,0.00,,,-99.99,,2013-05-22 19:02:00,
2013-05-22 14:11:00,79.0,66.0,29.84,NNE,32,6.0,11.0,65,0.00,,,-99.99,,2013-05-22 19:11:00,
2013-05-22 14:21:00,78.0,65.0,29.84,WNW,286,5.0,14.0,64,0.00,,,-99.99,,2013-05-22 19:21:00,
2013-05-22 14:32:00,80.0,65.0,29.84,North,5,8.0,13.0,61,0.00,,,-99.99,,2013-05-22 19:32:00,
2013-05-22 14:42:00,80.0,65.0,29.83,SSW,205,2.0,11.0,61,0.00,,,-99.99,,2013-05-22 19:42:00,
2013-05-22 14:52:00,80.0,65.0,29.83,SSW,205,2.0,11.0,61,0.00,,,-99.99,,2013-05-22 19:52:00,
2013-05-22 15:02:00,80.0,65.0,29.83,SSW,209,4.0,12.0,60,0.00,,,-99.99,,2013-05-22 20:02:00,
2013-05-22 15:11:00,81.0,65.0,29.83,SW,234,4.0,11.0,58,0.00,,,-99.99,,2013-05-22 20:11:00,
2013-05-22 15:21:00,81.0,65.0,29.83,SW,234,4.0,11.0,58,0.00,,,-99.99,,2013-05-22 20:21:00,
2013-05-22 15:32:00,80.0,64.0,29.83,West,265,5.0,11.0,58,0.00,,,-99.99,,2013-05-22 20:32:00,
2013-05-22 15:42:00,81.0,65.0,29.82,SW,225,0.0,13.0,59,0.00,,,-99.99,,2013-05-22 20:42:00,
2013-05-22 15:52:00,81.0,65.0,29.82,SW,225,0.0,13.0,59,0.00,,,-99.99,,2013-05-22 20:52:00,
2013-05-22 16:01:00,81.0,63.0,29.82,WNW,296,6.0,12.0,55,0.00,,,-99.99,,2013-05-22 21:01:00,
2013-05-22 16:11:00,81.0,63.0,29.82,WNW,296,6.0,12.0,55,0.00,,,-99.99,,2013-05-22 21:11:00,
2013-05-22 16:21:00,81.0,65.0,29.82,West,274,2.0,7.0,59,0.00,,,-99.99,,2013-05-22 21:21:00,
2013-05-22 16:32:00,81.0,63.0,29.82,West,271,5.0,10.0,55,0.00,,,-99.99,,2013-05-22 21:32:00,
2013-05-22 16:42:00,81.0,63.0,29.82,West,271,5.0,10.0,55,0.00,,,-99.99,,2013-05-22 21:42:00,
2013-05-22 16:53:00,81.0,64.0,29.82,WSW,248,3.0,10.0,56,0.00,,,-99.99,,2013-05-22 21:53:00,
2013-05-22 17:03:00,81.0,63.0,29.81,WNW,301,4.0,9.0,55,0.00,,,-99.99,,2013-05-22 22:03:00,
2013-05-22 17:12:00,81.0,63.0,29.81,WNW,301,4.0,9.0,55,0.00,,,-99.99,,2013-05-22 22:12:00,
2013-05-22 17:22:00,82.0,65.0,29.81,WSW,257,3.0,8.0,56,0.00,,,-99.99,,2013-05-22 22:22:00,
2013-05-22 17:33:00,81.0,63.0,29.82,SW,229,4.0,10.0,55,0.00,,,-99.99,,2013-05-22 22:33:00,
2013-05-22 17:42:00,81.0,63.0,29.82,NW,311,3.0,9.0,55,0.00,,,-99.99,,2013-05-22 22:42:00,
2013-05-22 17:52:00,81.0,63.0,29.82,NW,311,3.0,9.0,55,0.00,,,-99.99,,2013-05-22 22:52:00,
2013-05-22 18:02:00,81.0,64.0,29.82,SW,217,4.0,6.0,57,0.00,,,-99.99,,2013-05-22 23:02:00,
2013-05-22 18:12:00,81.0,64.0,29.82,SW,217,4.0,6.0,57,0.00,,,-99.99,,2013-05-22 23:12:00,
2013-05-22 18:21:00,81.0,65.0,29.81,WSW,249,3.0,8.0,59,0.00,,,-99.99,,2013-05-22 23:21:00,
2013-05-22 18:32:00,81.0,64.0,29.82,SSW,197,1.0,8.0,57,0.00,,,-99.99,,2013-05-22 23:32:00,
2013-05-22 18:42:00,81.0,64.0,29.82,SSW,197,1.0,8.0,57,0.00,,,-99.99,,2013-05-22 23:42:00,
2013-05-22 18:52:00,81.0,65.0,29.81,SW,234,1.0,8.0,58,0.00,,,-99.99,,2013-05-22 23:52:00,
2013-05-22 19:01:00,81.0,63.0,29.82,NW,304,3.0,7.0,54,0.00,,,-99.99,,2013-05-23 00:01:00,
2013-05-22 19:11:00,81.0,63.0,29.82,NW,304,3.0,7.0,54,0.00,,,-99.99,,2013-05-23 00:11:00,
2013-05-22 19:22:00,80.0,60.0,29.82,WNW,300,2.0,7.0,51,0.00,,,-99.99,,2013-05-23 00:22:00,
2013-05-22 19:31:00,80.0,62.0,29.82,SW,226,1.0,6.0,54,0.00,,,-99.99,,2013-05-23 00:31:00,
2013-05-22 19:42:00,80.0,62.0,29.82,SW,226,1.0,6.0,54,0.00,,,-99.99,,2013-05-23 00:42:00,
2013-05-22 19:52:00,79.0,62.0,29.83,NW,306,2.0,6.0,56,0.00,,,-99.99,,2013-05-23 00:52:00,
2013-05-22 20:01:00,78.0,62.0,29.83,West,259,1.0,8.0,58,0.00,,,-99.99,,2013-05-23 01:01:00,
2013-05-22 20:11:00,78.0,62.0,29.83,West,259,1.0,8.0,58,0.00,,,-99.99,,2013-05-23 01:11:00,
2013-05-22 20:21:00,77.0,63.0,29.83,WSW,252,0.0,0.0,61,0.00,,,-99.99,,2013-05-23 01:21:00,
2013-05-22 20:32:00,76.0,63.0,29.83,WSW,252,0.0,0.0,64,0.00,,,-99.99,,2013-05-23 01:32:00,
2013-05-22 20:42:00,75.0,64.0,29.83,WSW,252,0.0,0.0,68,0.00,,,-99.99,,2013-05-23 01:42:00,
2013-05-22 20:52:00,75.0,64.0,29.83,WSW,252,0.0,0.0,68,0.00,,,-99.99,,2013-05-23 01:52:00,
2013-05-22 21:01:00,74.0,64.0,29.84,WSW,252,0.0,0.0,70,0.00,,,-99.99,,2013-05-23 02:01:00,
2013-05-22 21:11:00,74.0,64.0,29.84,WSW,252,0.0,0.0,70,0.00,,,-99.99,,2013-05-23 02:11:00,
2013-05-22 21:21:00,73.0,64.0,29.85,WSW,252,0.0,0.0,73,0.00,,,-99.99,,2013-05-23 02:21:00,
2013-05-22 21:31:00,72.0,64.0,29.85,WSW,252,0.0,0.0,76,0.00,,,-99.99,,2013-05-23 02:31:00,
2013-05-22 21:42:00,72.0,64.0,29.85,WSW,252,0.0,0.0,76,0.00,,,-99.99,,2013-05-23 02:42:00,
2013-05-22 21:52:00,72.0,64.0,29.85,WSW,252,0.0,0.0,76,0.00,,,-99.99,,2013-05-23 02:52:00,
2013-05-22 22:01:00,71.0,64.0,29.86,WSW,252,0.0,0.0,79,0.00,,,-99.99,,2013-05-23 03:01:00,
2013-05-22 22:11:00,71.0,64.0,29.86,WSW,252,0.0,0.0,79,0.00,,,-99.99,,2013-05-23 03:11:00,
2013-05-22 22:21:00,70.0,64.0,29.86,WSW,252,0.0,0.0,81,0.00,,,-99.99,,2013-05-23 03:21:00,
2013-05-22 22:33:00,70.0,64.0,29.87,WSW,252,0.0,0.0,82,0.00,,,-99.99,,2013-05-23 03:33:00,
2013-05-22 22:43:00,70.0,64.0,29.87,WSW,252,0.0,0.0,82,0.00,,,-99.99,,2013-05-23 03:43:00,
2013-05-22 22:53:00,69.0,64.0,29.87,WSW,252,0.0,0.0,83,0.00,,,-99.99,,2013-05-23 03:53:00,
2013-05-22 23:03:00,69.0,64.0,29.87,WSW,252,0.0,0.0,84,0.00,,,-99.99,,2013-05-23 04:03:00,
2013-05-22 23:12:00,69.0,64.0,29.87,WSW,252,0.0,0.0,84,0.00,,,-99.99,,2013-05-23 04:12:00,
2013-05-22 23:22:00,68.0,63.0,29.87,WSW,252,0.0,0.0,85,0.00,,,-99.99,,2013-05-23 04:22:00,
2013-05-22 23:33:00,68.0,64.0,29.88,WSW,252,0.0,0.0,86,0.00,,,-99.99,,2013-05-23 04:33:00,
2013-05-22 23:42:00,68.0,64.0,29.88,WSW,252,0.0,0.0,86,0.00,,,-99.99,,2013-05-23 04:42:00,
2013-05-22 23:52:00,68.0,64.0,29.88,WSW,252,0.0,0.0,87,0.00,,,-99.99,,2013-05-23 04:52:00,